Time,TemperatureF,DewpointF,PressureIn,WindDirection,WindDirectionDegrees,WindSpeedMPH,WindSpeedGustMPH,Humidity,HourlyPrecipIn,Conditions,Clouds,dailyrainin,SoftwareType,DateUTC
2013-10-26 00:11:00,44.9,32.0,30.20,NW,314,1.0,8.0,61,0.00,,,0.00,weatherlink.com 1.10,2013-10-26 04:11:00,
2013-10-26 00:26:00,44.3,32.0,30.20,WSW,258,2.0,4.0,63,0.00,,,0.00,weatherlink.com 1.10,2013-10-26 04:26:00,
2013-10-26 00:41:00,44.7,33.0,30.20,WNW,285,2.0,4.0,63,0.00,,,0.00,weatherlink.com 1.10,2013-10-26 04:41:00,
2013-10-26 00:57:00,44.8,33.0,30.20,WNW,296,0.0,6.0,63,0.00,,,0.00,weatherlink.com 1.10,2013-10-26 04:57:00,
2013-10-26 01:11:00,44.8,33.0,30.20,WNW,299,3.0,8.0,63,0.00,,,0.00,weatherlink.com 1.10,2013-10-26 05:11:00,
2013-10-26 01:26:00,45.1,33.0,30.19,WSW,252,2.0,6.0,62,0.00,,,0.00,weatherlink.com 1.10,2013-10-26 05:26:00,
2013-10-26 01:41:00,44.9,34.0,30.20,NW,305,3.0,6.0,65,0.00,,,0.00,weatherlink.com 1.10,2013-10-26 05:41:00,
2013-10-26 01:56:00,44.9,34.0,30.20,West,273,1.0,5.0,65,0.00,,,0.00,weatherlink.com 1.10,2013-10-26 05:56:00,
2013-10-26 02:12:00,45.5,33.0,30.19,WNW,300,1.0,8.0,63,0.00,,,0.00,weatherlink.com 1.10,2013-10-26 06:12:00,
2013-10-26 02:27:00,45.1,34.0,30.19,West,265,1.0,4.0,66,0.00,,,0.00,weatherlink.com 1.10,2013-10-26 06:27:00,
2013-10-26 02:42:00,45.4,35.0,30.19,WNW,283,3.0,5.0,67,0.00,,,0.00,weatherlink.com 1.10,2013-10-26 06:42:00,
2013-10-26 02:57:00,45.4,35.0,30.19,NW,321,3.0,4.0,68,0.00,,,0.00,weatherlink.com 1.10,2013-10-26 06:57:00,
2013-10-26 03:12:00,45.3,36.0,30.19,WNW,293,0.0,4.0,69,0.00,,,0.00,weatherlink.com 1.10,2013-10-26 07:12:00,
2013-10-26 03:27:00,44.9,36.0,30.19,WNW,283,0.0,5.0,70,0.00,,,0.00,weatherlink.com 1.10,2013-10-26 07:27:00,
2013-10-26 03:42:00,45.4,35.0,30.18,NW,310,1.0,5.0,67,0.00,,,0.00,weatherlink.com 1.10,2013-10-26 07:42:00,
2013-10-26 03:57:00,45.1,35.0,30.18,NW,311,0.0,3.0,68,0.00,,,0.00,weatherlink.com 1.10,2013-10-26 07:57:00,
2013-10-26 04:12:00,43.8,35.0,30.18,SW,230,0.0,3.0,71,0.00,,,0.00,weatherlink.com 1.10,2013-10-26 08:12:00,
2013-10-26 04:27:00,40.9,34.0,30.18,West,266,1.0,2.0,76,0.00,,,0.00,weatherlink.com 1.10,2013-10-26 08:27:00,
2013-10-26 04:42:00,38.7,33.0,30.19,West,266,0.0,1.0,80,0.00,,,0.00,weatherlink.com 1.10,2013-10-26 08:42:00,
2013-10-26 04:57:00,36.9,32.0,30.19,West,266,0.0,1.0,83,0.00,,,0.00,weatherlink.com 1.10,2013-10-26 08:57:00,
2013-10-26 05:12:00,35.5,31.0,30.19,West,266,0.0,0.0,85,0.00,,,0.00,weatherlink.com 1.10,2013-10-26 09:12:00,
2013-10-26 05:27:00,34.3,31.0,30.19,West,266,0.0,0.0,86,0.00,,,0.00,weatherlink.com 1.10,2013-10-26 09:27:00,
2013-10-26 05:42:00,33.4,30.0,30.19,West,266,0.0,0.0,88,0.00,,,0.00,weatherlink.com 1.10,2013-10-26 09:42:00,
2013-10-26 05:57:00,32.5,30.0,30.19,West,266,0.0,0.0,89,0.00,,,0.00,weatherlink.com 1.10,2013-10-26 09:57:00,
2013-10-26 06:12:00,31.7,29.0,30.19,West,266,0.0,0.0,89,0.00,,,0.00,weatherlink.com 1.10,2013-10-26 10:12:00,
2013-10-26 06:27:00,31.0,29.0,30.19,West,266,0.0,0.0,90,0.00,,,0.00,weatherlink.com 1.10,2013-10-26 10:27:00,
2013-10-26 06:42:00,30.6,28.0,30.19,West,266,0.0,0.0,91,0.00,,,0.00,weatherlink.com 1.10,2013-10-26 10:42:00,
2013-10-26 06:58:00,30.3,28.0,30.19,West,266,0.0,1.0,91,0.00,,,0.00,weatherlink.com 1.10,2013-10-26 10:58:00,
2013-10-26 07:12:00,30.2,28.0,30.19,West,266,0.0,0.0,92,0.00,,,0.00,weatherlink.com 1.10,2013-10-26 11:12:00,
2013-10-26 07:27:00,31.1,29.0,30.19,West,266,0.0,0.0,93,0.00,,,0.00,weatherlink.com 1.10,2013-10-26 11:27:00,
2013-10-26 07:42:00,34.0,33.0,30.20,West,266,0.0,2.0,95,0.00,,,0.00,weatherlink.com 1.10,2013-10-26 11:42:00,
2013-10-26 07:57:00,37.8,37.0,30.20,WNW,291,1.0,4.0,95,0.00,,,0.00,weatherlink.com 1.10,2013-10-26 11:57:00,
2013-10-26 08:13:00,45.0,41.0,30.20,West,274,2.0,10.0,84,0.00,,,0.00,weatherlink.com 1.10,2013-10-26 12:13:00,
2013-10-26 08:28:00,47.9,40.0,30.20,WNW,300,1.0,8.0,73,0.00,,,0.00,weatherlink.com 1.10,2013-10-26 12:28:00,
2013-10-26 08:43:00,49.0,40.0,30.20,WSW,250,5.0,10.0,71,0.01,,,0.01,weatherlink.com 1.10,2013-10-26 12:43:00,
2013-10-26 08:58:00,49.9,40.0,30.20,West,268,5.0,11.0,68,0.01,,,0.01,weatherlink.com 1.10,2013-10-26 12:58:00,
2013-10-26 09:13:00,50.9,39.0,30.20,West,278,3.0,11.0,65,0.01,,,0.01,weatherlink.com 1.10,2013-10-26 13:13:00,
2013-10-26 09:28:00,52.2,41.0,30.19,West,266,2.0,9.0,65,0.01,,,0.01,weatherlink.com 1.10,2013-10-26 13:28:00,
2013-10-26 09:43:00,52.7,42.0,30.19,West,271,3.0,9.0,67,0.00,,,0.01,weatherlink.com 1.10,2013-10-26 13:43:00,
2013-10-26 09:58:00,53.0,41.0,30.18,WNW,297,4.0,8.0,65,0.00,,,0.01,weatherlink.com 1.10,2013-10-26 13:58:00,
2013-10-26 10:13:00,53.5,41.0,30.18,NNW,337,3.0,9.0,62,0.00,,,0.01,weatherlink.com 1.10,2013-10-26 14:13:00,
2013-10-26 10:28:00,53.5,38.0,30.18,WSW,255,9.0,15.0,57,0.00,,,0.01,weatherlink.com 1.10,2013-10-26 14:28:00,
2013-10-26 10:44:00,54.2,39.0,30.18,South,189,4.0,16.0,57,0.00,,,0.01,weatherlink.com 1.10,2013-10-26 14:44:00,
2013-10-26 10:59:00,56.8,41.0,30.17,WNW,286,9.0,9.0,55,0.00,,,0.01,weatherlink.com 1.10,2013-10-26 14:59:00,
2013-10-26 11:14:00,54.9,40.0,30.16,SW,224,1.0,16.0,57,0.00,,,0.01,weatherlink.com 1.10,2013-10-26 15:14:00,
2013-10-26 11:29:00,54.9,40.0,30.16,SW,220,5.0,15.0,57,0.00,,,0.01,weatherlink.com 1.10,2013-10-26 15:29:00,
2013-10-26 11:44:00,55.6,41.0,30.15,WNW,300,9.0,10.0,58,0.00,,,0.01,weatherlink.com 1.10,2013-10-26 15:44:00,
2013-10-26 11:59:00,56.4,42.0,30.14,West,275,3.0,12.0,59,0.00,,,0.01,weatherlink.com 1.10,2013-10-26 15:59:00,
2013-10-26 12:14:00,55.9,41.0,30.14,SW,231,3.0,14.0,58,0.00,,,0.01,weatherlink.com 1.10,2013-10-26 16:14:00,
2013-10-26 12:29:00,55.1,41.0,30.13,SSE,163,4.0,14.0,60,0.00,,,0.01,weatherlink.com 1.10,2013-10-26 16:29:00,
2013-10-26 12:44:00,56.6,41.0,30.12,South,189,7.0,13.0,56,0.00,,,0.01,weatherlink.com 1.10,2013-10-26 16:44:00,
2013-10-26 12:59:00,55.0,40.0,30.11,WSW,248,3.0,14.0,57,0.00,,,0.01,weatherlink.com 1.10,2013-10-26 16:59:00,
2013-10-26 13:14:00,56.5,39.0,30.10,SW,220,5.0,17.0,52,0.00,,,0.01,weatherlink.com 1.10,2013-10-26 17:14:00,
2013-10-26 13:29:00,57.5,41.0,30.10,West,277,2.0,12.0,54,0.00,,,0.01,weatherlink.com 1.10,2013-10-26 17:29:00,
2013-10-26 13:44:00,56.4,38.0,30.09,WNW,284,4.0,19.0,51,0.00,,,0.01,weatherlink.com 1.10,2013-10-26 17:44:00,
2013-10-26 13:59:00,55.8,38.0,30.09,West,278,4.0,22.0,51,0.00,,,0.01,weatherlink.com 1.10,2013-10-26 17:59:00,
2013-10-26 14:14:00,56.1,38.0,30.08,West,266,12.0,20.0,51,0.00,,,0.01,weatherlink.com 1.10,2013-10-26 18:14:00,
2013-10-26 14:29:00,55.3,38.0,30.08,South,186,14.0,21.0,53,0.00,,,0.01,weatherlink.com 1.10,2013-10-26 18:29:00,
2013-10-26 14:44:00,55.5,39.0,30.07,NNW,342,5.0,17.0,54,0.00,,,0.01,weatherlink.com 1.10,2013-10-26 18:44:00,
2013-10-26 14:59:00,55.1,38.0,30.07,SSE,160,2.0,15.0,53,0.00,,,0.01,weatherlink.com 1.10,2013-10-26 18:59:00,
2013-10-26 15:14:00,55.2,38.0,30.07,SSW,212,8.0,20.0,53,0.00,,,0.01,weatherlink.com 1.10,2013-10-26 19:14:00,
2013-10-26 15:29:00,54.2,38.0,30.07,SSE,153,5.0,18.0,55,0.00,,,0.01,weatherlink.com 1.10,2013-10-26 19:29:00,
2013-10-26 15:44:00,54.5,38.0,30.07,West,266,7.0,18.0,55,0.00,,,0.01,weatherlink.com 1.10,2013-10-26 19:44:00,
2013-10-26 15:59:00,53.8,38.0,30.06,SE,140,4.0,17.0,55,0.00,,,0.01,weatherlink.com 1.10,2013-10-26 19:59:00,
2013-10-26 16:15:00,54.2,37.0,30.06,SE,134,4.0,20.0,53,0.00,,,0.01,weatherlink.com 1.10,2013-10-26 20:15:00,
2013-10-26 16:30:00,53.6,37.0,30.05,South,191,5.0,13.0,54,0.00,,,0.01,weatherlink.com 1.10,2013-10-26 20:30:00,
2013-10-26 16:45:00,53.4,38.0,30.04,SW,224,1.0,9.0,57,0.00,,,0.01,weatherlink.com 1.10,2013-10-26 20:45:00,
2013-10-26 17:00:00,53.5,39.0,30.03,WNW,298,9.0,11.0,58,0.00,,,0.01,weatherlink.com 1.10,2013-10-26 21:00:00,
2013-10-26 17:14:00,53.3,39.0,30.03,NW,304,1.0,9.0,58,0.00,,,0.01,weatherlink.com 1.10,2013-10-26 21:14:00,
2013-10-26 17:30:00,53.0,39.0,30.02,South,177,3.0,13.0,59,0.00,,,0.01,weatherlink.com 1.10,2013-10-26 21:30:00,
2013-10-26 17:45:00,53.1,39.0,30.01,West,264,2.0,13.0,60,0.00,,,0.01,weatherlink.com 1.10,2013-10-26 21:45:00,
2013-10-26 18:00:00,53.4,39.0,30.01,North,9,2.0,18.0,59,0.00,,,0.01,weatherlink.com 1.10,2013-10-26 22:00:00,
2013-10-26 18:14:00,53.4,39.0,30.01,SSE,164,2.0,14.0,58,0.00,,,0.01,weatherlink.com 1.10,2013-10-26 22:14:00,
2013-10-26 18:29:00,53.4,39.0,30.01,WNW,298,3.0,15.0,58,0.00,,,0.01,weatherlink.com 1.10,2013-10-26 22:29:00,
2013-10-26 18:44:00,53.6,38.0,30.01,WSW,248,3.0,18.0,57,0.00,,,0.01,weatherlink.com 1.10,2013-10-26 22:44:00,
2013-10-26 18:59:00,53.7,39.0,30.01,WNW,302,4.0,15.0,58,0.00,,,0.01,weatherlink.com 1.10,2013-10-26 22:59:00,
2013-10-26 19:15:00,54.1,40.0,30.00,NW,320,10.0,15.0,59,0.00,,,0.01,weatherlink.com 1.10,2013-10-26 23:15:00,
2013-10-26 19:30:00,54.3,40.0,30.00,SSW,196,1.0,18.0,58,0.00,,,0.01,weatherlink.com 1.10,2013-10-26 23:30:00,
2013-10-26 19:45:00,54.6,39.0,30.00,SSW,202,9.0,17.0,57,0.00,,,0.01,weatherlink.com 1.10,2013-10-26 23:45:00,
2013-10-26 20:00:00,54.4,40.0,30.00,South,183,1.0,13.0,59,0.00,,,0.01,weatherlink.com 1.10,2013-10-27 00:00:00,
2013-10-26 20:15:00,54.4,41.0,29.99,South,179,7.0,13.0,60,0.00,,,0.01,weatherlink.com 1.10,2013-10-27 00:15:00,
2013-10-26 20:30:00,54.6,41.0,29.98,West,276,4.0,16.0,60,0.00,,,0.01,weatherlink.com 1.10,2013-10-27 00:30:00,
2013-10-26 20:45:00,54.5,41.0,29.98,WNW,298,2.0,11.0,61,0.00,,,0.01,weatherlink.com 1.10,2013-10-27 00:45:00,
2013-10-26 21:00:00,54.9,41.0,29.98,NNW,342,5.0,18.0,60,0.00,,,0.01,weatherlink.com 1.10,2013-10-27 01:00:00,
2013-10-26 21:14:00,55.0,42.0,29.98,South,171,4.0,12.0,61,0.00,,,0.01,weatherlink.com 1.10,2013-10-27 01:14:00,
2013-10-26 21:29:00,55.6,42.0,29.98,SSW,197,1.0,9.0,61,0.00,,,0.01,weatherlink.com 1.10,2013-10-27 01:29:00,
2013-10-26 21:44:00,56.0,43.0,29.97,West,262,4.0,18.0,61,0.00,,,0.01,weatherlink.com 1.10,2013-10-27 01:44:00,
2013-10-26 21:59:00,56.4,42.0,29.97,SSW,207,2.0,16.0,60,0.00,,,0.01,weatherlink.com 1.10,2013-10-27 01:59:00,
2013-10-26 22:14:00,56.4,43.0,29.96,SSW,195,2.0,10.0,62,0.00,,,0.01,weatherlink.com 1.10,2013-10-27 02:14:00,
2013-10-26 22:29:00,56.6,44.0,29.96,West,260,7.0,11.0,62,0.00,,,0.01,weatherlink.com 1.10,2013-10-27 02:29:00,
2013-10-26 22:44:00,57.1,44.0,29.95,SSW,193,1.0,15.0,61,0.00,,,0.01,weatherlink.com 1.10,2013-10-27 02:44:00,
2013-10-26 22:59:00,56.7,44.0,29.94,South,172,7.0,16.0,62,0.00,,,0.01,weatherlink.com 1.10,2013-10-27 02:59:00,
2013-10-26 23:15:00,56.7,44.0,29.93,West,269,1.0,21.0,63,0.00,,,0.01,weatherlink.com 1.10,2013-10-27 03:15:00,
2013-10-26 23:30:00,56.6,44.0,29.92,WNW,297,1.0,12.0,63,0.00,,,0.01,weatherlink.com 1.10,2013-10-27 03:30:00,
2013-10-26 23:45:00,56.5,43.0,29.92,South,188,3.0,13.0,62,0.00,,,0.01,weatherlink.com 1.10,2013-10-27 03:45:00,